Weather History for Darlington, SC

Change the Weather History Date:

Saturday, September 15, 2012

  Actual Average (KFLO) Record (KFLO)
Temperature  
Mean Temperature 74 °F 75 °F  
Max Temperature 87 °F 85 °F 99 °F (1980)
Min Temperature 60 °F 65 °F 51 °F (1985)
Degree Days  
Heating Degree Days 0 0  
Month to date heating degree days 0  
Since 1 July heating degree days 0  
Cooling Degree Days 8 10  
Month to date cooling degree days 173  
Year to date cooling degree days 1843  
Growing Degree Days 24 (Base 50)    
Moisture  
Dew Point 63 °F    
Average Humidity 73    
Maximum Humidity 94    
Minimum Humidity 43    
Precipitation  
Precipitation 0.00 in 0.12 in 3.72 in (1999)
Month to date precipitation 1.94  
Year to date precipitation 32.42  
Sea Level Pressure  
Sea Level Pressure 30.14 in    
Wind  
Wind Speed 2 mph (NNE)    
Max Wind Speed 8 mph    
Max Gust Speed -    
Visibility 9 miles    
Events      
T = Trace of Precipitation, MM = Missing Value Source: NWS Daily Summary

Daily Weather History Graph

Daily Weather History Graph

Search for Another Location

Airport:

Trip Planner

Search our weather history database for the weather conditions in past years. The results will help you decide how hot, cold, wet, or windy it might be!

Date:

Astronomy

Sep. 15, 2012 Rise Set
Actual Time 7:02 AM EDT 7:25 PM EDT
Civil Twilight 6:37 AM EDT 7:50 PM EDT
Nautical Twilight 6:08 AM EDT 8:20 PM EDT
Astronomical Twilight 5:38 AM EDT 8:50 PM EDT
Moon 6:31 AM EDT (9/15) 6:57 PM EDT (9/15)
Length of Visible Light 13h 12m
Length of Day
12h 22m
Waning Crescent, 0% of the Moon is Illuminated
Sep 15
Waning Crescent
Sep 15
New
Sep 22
First Quarter
Sep 29
Full
Oct 8
Last Quarter

Hourly Weather History & Observations

Time (EDT) Temp. Heat Index Dew Point Humidity Pressure Visibility Wind Dir Wind Speed Gust Speed Precip Events Conditions
12:15 AM 64.4 °F - 62.6 °F 94% 30.16 in 10.0 mi Calm Calm - N/A   Clear
12:35 AM 66.2 °F - 62.6 °F 88% 30.16 in 10.0 mi Calm Calm - N/A   Clear
12:55 AM 64.4 °F - 60.8 °F 88% 30.16 in 10.0 mi NNW 3.5 mph - N/A   Clear
1:15 AM 64.4 °F - 60.8 °F 88% 30.16 in 10.0 mi NW 3.5 mph - N/A   Clear
1:35 AM 64.4 °F - 60.8 °F 88% 30.16 in 10.0 mi Calm Calm - N/A   Clear
1:55 AM 64.4 °F - 60.8 °F 88% 30.16 in 10.0 mi Calm Calm - N/A   Clear
2:15 AM 64.4 °F - 60.8 °F 88% 30.15 in 10.0 mi NNW 4.6 mph - N/A   Clear
2:35 AM 64.4 °F - 60.8 °F 88% 30.15 in 10.0 mi Calm Calm - N/A   Clear
2:55 AM 64.4 °F - 60.8 °F 88% 30.15 in 10.0 mi Calm Calm - N/A   Clear
3:15 AM 62.6 °F - 59.0 °F 88% 30.15 in 10.0 mi NW 5.8 mph - N/A   Clear
3:35 AM 62.6 °F - 60.8 °F 94% 30.14 in 9.0 mi North 3.5 mph - N/A   Clear
3:55 AM 64.4 °F - 59.0 °F 83% 30.14 in 10.0 mi NNW 4.6 mph - N/A   Clear
4:15 AM 62.6 °F - 59.0 °F 88% 30.14 in 10.0 mi NNW 3.5 mph - N/A   Clear
4:35 AM 62.6 °F - 59.0 °F 88% 30.14 in 8.0 mi North 3.5 mph - N/A   Clear
4:55 AM 62.6 °F - 59.0 °F 88% 30.15 in 10.0 mi North 3.5 mph - N/A   Clear
5:15 AM 64.4 °F - 59.0 °F 83% 30.15 in 6.0 mi Calm Calm - N/A   Clear
5:35 AM 60.8 °F - 57.2 °F 88% 30.16 in 8.0 mi NNW 3.5 mph - N/A   Clear
5:55 AM 62.6 °F - 57.2 °F 82% 30.16 in 7.0 mi Calm Calm - N/A   Clear
6:15 AM 62.6 °F - 59.0 °F 88% 30.16 in 8.0 mi NNW 4.6 mph - N/A   Clear
6:35 AM 62.6 °F - 59.0 °F 88% 30.17 in 8.0 mi North 3.5 mph - N/A   Clear
6:55 AM 62.6 °F - 57.2 °F 82% 30.16 in 5.0 mi North 3.5 mph - N/A   Clear
7:15 AM 64.4 °F - 60.8 °F 88% 30.16 in 5.0 mi Calm Calm - N/A   Clear
7:35 AM 62.6 °F - 59.0 °F 88% 30.17 in 4.0 mi Calm Calm - N/A   Clear
7:55 AM 62.6 °F - 60.8 °F 94% 30.18 in 5.0 mi Calm Calm - N/A   Clear
8:15 AM 66.2 °F - 60.8 °F 83% 30.18 in 9.0 mi Calm Calm - N/A   Clear
8:35 AM 68.0 °F - 62.6 °F 83% 30.18 in 10.0 mi NNW 3.5 mph - N/A   Clear
8:55 AM 69.8 °F - 64.4 °F 83% 30.19 in 10.0 mi Calm Calm - N/A   Clear
9:15 AM 71.6 °F - 66.2 °F 83% 30.19 in 10.0 mi Calm Calm - N/A   Clear
9:35 AM 73.4 °F - 66.2 °F 78% 30.19 in 10.0 mi Calm Calm - N/A   Clear
9:55 AM 75.2 °F - 69.8 °F 83% 30.19 in 10.0 mi NNE 3.5 mph - N/A   Clear
10:15 AM 77.0 °F - 68.0 °F 74% 30.19 in 10.0 mi Calm Calm - N/A   Clear
10:35 AM 78.8 °F - 66.2 °F 65% 30.19 in 10.0 mi Calm Calm - N/A   Clear
10:55 AM 78.8 °F - 66.2 °F 65% 30.19 in 10.0 mi North 3.5 mph - N/A   Clear
11:15 AM 80.6 °F 82.3 °F 64.4 °F 58% 30.19 in 10.0 mi Calm Calm - N/A   Partly Cloudy
11:35 AM 80.6 °F 82.3 °F 64.4 °F 58% 30.19 in 10.0 mi Calm Calm - N/A   Partly Cloudy
11:55 AM 82.4 °F 84.6 °F 66.2 °F 58% 30.18 in 10.0 mi NE 6.9 mph - N/A   Clear
12:15 PM 82.4 °F 83.9 °F 64.4 °F 54% 30.18 in 10.0 mi North 5.8 mph - N/A   Clear
12:35 PM 82.4 °F 83.9 °F 64.4 °F 54% 30.17 in 10.0 mi North 6.9 mph - N/A   Partly Cloudy
12:55 PM 84.2 °F 85.6 °F 64.4 °F 51% 30.17 in 10.0 mi NNE 6.9 mph - N/A   Clear
1:15 PM 84.2 °F 86.6 °F 66.2 °F 55% 30.16 in 10.0 mi East 5.8 mph - N/A   Scattered Clouds
1:35 PM 84.2 °F 85.6 °F 64.4 °F 51% 30.15 in 9.0 mi NNE 5.8 mph - N/A   Scattered Clouds
1:55 PM 84.2 °F 85.6 °F 64.4 °F 51% 30.14 in 10.0 mi ENE 6.9 mph - N/A   Clear
2:15 PM 84.2 °F 86.6 °F 66.2 °F 55% 30.13 in 10.0 mi NNE 5.8 mph - N/A   Clear
2:35 PM 86.0 °F 88.2 °F 66.2 °F 51% 30.12 in 10.0 mi NNE 6.9 mph - N/A   Clear
2:55 PM 84.2 °F 85.0 °F 62.6 °F 48% 30.12 in 9.0 mi NNW 3.5 mph - N/A   Clear
3:15 PM 84.2 °F 86.6 °F 66.2 °F 55% 30.11 in 10.0 mi NE 3.5 mph - N/A   Partly Cloudy
3:35 PM 87.8 °F 89.4 °F 64.4 °F 46% 30.11 in 10.0 mi NNW 6.9 mph - N/A   Clear
3:55 PM 87.8 °F 88.5 °F 62.6 °F 43% 30.10 in 10.0 mi SE 5.8 mph - N/A   Scattered Clouds
4:15 PM 87.8 °F 88.5 °F 62.6 °F 43% 30.10 in 10.0 mi ENE 3.5 mph - N/A   Partly Cloudy
4:35 PM 84.2 °F 85.0 °F 62.6 °F 48% 30.10 in 10.0 mi Calm Calm - N/A   Clear
4:55 PM 87.8 °F 89.4 °F 64.4 °F 46% 30.09 in 10.0 mi NE 4.6 mph - N/A   Clear
5:15 PM 86.0 °F 86.6 °F 62.6 °F 45% 30.09 in 10.0 mi ESE 3.5 mph - N/A   Clear
5:35 PM 86.0 °F 87.3 °F 64.4 °F 48% 30.10 in 10.0 mi ENE 4.6 mph - N/A   Clear
5:55 PM 84.2 °F 85.0 °F 62.6 °F 48% 30.10 in 10.0 mi ENE 3.5 mph - N/A   Clear
6:15 PM 82.4 °F 83.9 °F 64.4 °F 54% 30.10 in 10.0 mi SSE 3.5 mph - N/A   Clear
6:35 PM 80.6 °F 82.7 °F 66.2 °F 61% 30.10 in 10.0 mi South 3.5 mph - N/A   Clear
6:55 PM 80.6 °F 82.3 °F 64.4 °F 58% 30.10 in 10.0 mi SE 4.6 mph - N/A   Partly Cloudy
7:15 PM 78.8 °F - 66.2 °F 65% 30.10 in 10.0 mi Calm Calm - N/A   Clear
7:35 PM 75.2 °F - 69.8 °F 83% 30.10 in 10.0 mi Calm Calm - N/A   Clear
7:55 PM 73.4 °F - 66.2 °F 78% 30.10 in 10.0 mi Calm Calm - N/A   Clear
8:15 PM 73.4 °F - 66.2 °F 78% 30.10 in 10.0 mi Calm Calm - N/A   Clear
8:35 PM 73.4 °F - 66.2 °F 78% 30.11 in 10.0 mi Calm Calm - N/A   Clear
8:55 PM 71.6 °F - 66.2 °F 83% 30.11 in 10.0 mi Calm Calm - N/A   Clear
9:15 PM 71.6 °F - 64.4 °F 78% 30.11 in 10.0 mi Calm Calm - N/A   Clear
9:35 PM 69.8 °F - 66.2 °F 88% 30.11 in 10.0 mi Calm Calm - N/A   Clear
9:55 PM 71.6 °F - 64.4 °F 78% 30.12 in 10.0 mi Calm Calm - N/A   Clear
10:15 PM 71.6 °F - 64.4 °F 78% 30.12 in 10.0 mi Calm Calm - N/A   Clear
10:35 PM 69.8 °F - 64.4 °F 83% 30.12 in 10.0 mi Calm Calm - N/A   Clear
10:55 PM 69.8 °F - 64.4 °F 83% 30.12 in 10.0 mi Calm Calm - N/A   Scattered Clouds
11:15 PM 69.8 °F - 66.2 °F 88% 30.13 in 10.0 mi NE 8.1 mph - N/A   Mostly Cloudy
11:35 PM 71.6 °F - 66.2 °F 83% 30.13 in 10.0 mi Calm Calm - N/A   Mostly Cloudy
11:55 PM 71.6 °F - 66.2 °F 83% 30.13 in 10.0 mi ESE 3.5 mph - N/A   Mostly Cloudy